Location: Ottawa
(45.4167°N, 75.7000°W)
Time: 15:34:50
(UTC-04:00)

Vanguard 2 Rocket - All Passes

Search period start: 19 June 2018 00:00
Search period end: 29 June 2018 00:00
Orbit: 553 x 3328 km, 32.9° (Epoch: 18 June)

Date Brightness Start Highest point End Pass type
(mag) Time Alt. Az. Time Alt. Az. Time Alt. Az.
19 Jun - 08:27:27 10° SSE 08:35:05 13° SE 08:42:31 10° ESE daylight
19 Jun - 10:33:36 10° SSW 10:50:08 33° SSE 11:03:45 10° E daylight
19 Jun - 12:48:06 10° WSW 13:06:05 48° S 13:18:16 10° ESE daylight
19 Jun - 15:05:53 10° WSW 15:21:13 45° SSW 15:30:35 10° SE daylight
19 Jun - 17:25:06 10° W 17:34:12 23° SW 17:40:24 10° SSE daylight
20 Jun - 09:34:02 10° SSW 09:49:05 27° SE 10:02:38 10° E daylight
20 Jun - 11:46:38 10° SW 12:04:57 45° SSE 12:18:32 10° E daylight
20 Jun - 14:03:33 10° WSW 14:20:46 50° S 14:31:41 10° ESE daylight
20 Jun - 16:22:21 10° W 16:34:47 33° SSW 16:42:41 10° SSE daylight
21 Jun - 08:35:40 10° S 08:48:12 21° SE 09:00:23 10° E daylight
21 Jun - 10:45:47 10° SW 11:03:40 41° SSE 11:18:21 10° E daylight
21 Jun - 13:01:26 10° WSW 13:19:54 52° S 13:32:25 10° ESE daylight
21 Jun - 15:19:45 10° W 15:34:54 42° SSW 15:44:23 10° SE daylight
21 Jun - 17:40:06 10° W 17:47:24 18° SW 17:52:52 10° S daylight
22 Jun - 07:39:26 10° SSE 07:47:37 14° SE 07:55:56 10° ESE daylight
22 Jun - 09:45:39 10° SSW 10:02:24 35° SSE 10:17:35 10° E daylight
22 Jun - 11:59:44 10° WSW 12:18:41 51° S 12:32:46 10° ESE daylight
22 Jun - 14:17:15 10° W 14:34:32 48° SSW 14:45:37 10° SE daylight
22 Jun - 16:36:40 10° W 16:48:07 27° SW 16:55:50 10° SSE daylight
23 Jun - 08:46:24 10° SSW 09:01:19 29° SE 09:16:02 10° E daylight
23 Jun - 10:58:34 10° SW 11:17:15 48° SSE 11:32:40 10° E daylight
23 Jun - 13:15:01 10° WSW 13:33:40 52° S 13:46:27 10° ESE daylight
23 Jun - 15:33:46 10° W 15:48:24 36° SSW 15:57:53 10° SSE daylight
23 Jun - 17:56:47 10° WSW 18:00:22 12° SW 18:03:31 10° SSW daylight
24 Jun - 07:48:18 10° S 08:00:32 21° SE 08:13:21 10° E daylight
24 Jun - 09:58:03 10° SW 10:15:47 43° SSE 10:32:04 10° E daylight
24 Jun - 12:13:09 10° WSW 12:32:25 54° S 12:46:51 10° ESE daylight
24 Jun - 14:31:07 10° W 14:48:08 45° SSW 14:59:20 10° SE daylight
24 Jun - 16:51:30 10° W 17:01:14 21° SW 17:08:20 10° S daylight
25 Jun - 06:52:20 10° SSE 07:00:08 14° SE 07:08:26 10° ESE daylight
25 Jun - 08:58:17 10° SSW 09:14:29 36° SSE 09:30:51 10° E daylight
25 Jun - 11:11:46 10° WSW 11:30:53 53° S 11:46:49 10° E daylight
25 Jun - 13:28:46 10° W 13:47:21 51° SSW 14:00:18 10° ESE daylight
25 Jun - 15:48:02 10° W 16:01:39 30° SW 16:10:59 10° SSE daylight
26 Jun - 07:59:21 10° SSW 08:13:29 29° SE 08:28:51 10° E daylight
26 Jun - 10:10:59 10° SW 10:29:16 49° SSE 10:46:18 10° E daylight
26 Jun - 12:26:47 10° WSW 12:46:07 54° S 13:00:48 10° ESE daylight
26 Jun - 14:45:08 10° W 15:01:33 39° SSW 15:12:46 10° SE daylight
26 Jun - 17:07:29 10° WSW 17:14:07 14° SW 17:19:33 10° SSW daylight
27 Jun - 07:01:35 10° S 07:12:54 21° SE 07:25:42 10° E daylight
27 Jun - 09:10:52 10° SW 09:27:45 44° SSE 09:45:14 10° E daylight
27 Jun - 11:25:16 10° WSW 11:44:33 55° S 12:00:50 10° ESE daylight
27 Jun - 13:42:39 10° W 14:00:54 47° SSW 14:13:57 10° SE daylight
27 Jun - 16:02:46 10° W 16:14:40 23° SW 16:23:26 10° S daylight
28 Jun - 06:06:02 10° SSE 06:12:46 13° SE 06:20:12 10° ESE daylight
28 Jun - 08:11:28 10° SSW 08:26:33 37° SSE 08:43:34 10° E daylight
28 Jun - 10:24:19 10° WSW 10:42:50 54° S 11:00:22 10° E daylight
28 Jun - 12:40:35 10° W 12:59:45 52° SSW 13:14:35 10° ESE daylight
28 Jun - 14:59:24 10° W 15:14:45 32° SW 15:25:46 10° SSE daylight
